EN

Hourly Weather Abegondo

Today, 14 May, Friday

Time Temperature Precipitation Wind Pressure Humidity
00:00 +7°C° 0 mm 1 mps 747 mmHg 97%
01:00 +7°C° 0 mm 1 mps 747 mmHg 97%
02:00 +6°C° 0 mm 1 mps 747 mmHg 98%
03:00 +7°C° 0 mm 1 mps 747 mmHg 97%
04:00 +7°C° 0 mm 1 mps 747 mmHg 97%
05:00 +7°C° 0 mm 1 mps 747 mmHg 96%
06:00 +8°C° 0 mm 2 mps 747 mmHg 85%
07:00 +12°C° 0 mm 2 mps 747 mmHg 73%
08:00 +14°C° 0 mm 2 mps 747 mmHg 61%
09:00 +16°C° 0 mm 2 mps 747 mmHg 57%
10:00 +17°C° 0 mm 3 mps 746 mmHg 53%
11:00 +19°C° 0 mm 3 mps 746 mmHg 49%
12:00 +18°C° 0 mm 3 mps 746 mmHg 53%
13:00 +18°C° 0 mm 4 mps 745 mmHg 58%
14:00 +18°C° 0 mm 4 mps 745 mmHg 62%
15:00 +17°C° 0 mm 4 mps 745 mmHg 69%
16:00 +15°C° 0 mm 4 mps 745 mmHg 76%
17:00 +14°C° 0 mm 4 mps 744 mmHg 83%
18:00 +14°C° 0.1 mm 4 mps 744 mmHg 87%
19:00 +14°C° 0.1 mm 4 mps 744 mmHg 90%
20:00 +13°C° 0.1 mm 4 mps 744 mmHg 94%
21:00 +14°C° 0.6 mm 4 mps 744 mmHg 94%
22:00 +14°C° 0.6 mm 4 mps 743 mmHg 95%
23:00 +14°C° 0.6 mm 5 mps 742 mmHg 96%

Tomorrow, 15 May, Saturday

Time Temperature Precipitation Wind Pressure Humidity
00:00 +14°C° 0.9 mm 5 mps 742 mmHg 96%
01:00 +14°C° 0.9 mm 5 mps 742 mmHg 97%
02:00 +14°C° 0.9 mm 5 mps 741 mmHg 98%
03:00 +14°C° 0.7 mm 5 mps 741 mmHg 98%
04:00 +15°C° 0.7 mm 5 mps 742 mmHg 98%
05:00 +15°C° 0.7 mm 5 mps 742 mmHg 98%
06:00 +15°C° 0.5 mm 4 mps 742 mmHg 98%
07:00 +15°C° 0.5 mm 4 mps 742 mmHg 97%
08:00 +15°C° 0.5 mm 4 mps 742 mmHg 97%
09:00 +15°C° 0.3 mm 4 mps 742 mmHg 97%
10:00 +15°C° 0.3 mm 4 mps 743 mmHg 97%
11:00 +15°C° 0.3 mm 4 mps 743 mmHg 97%
12:00 +15°C° 0.4 mm 4 mps 743 mmHg 97%
13:00 +15°C° 0.4 mm 4 mps 742 mmHg 97%
14:00 +15°C° 0.4 mm 5 mps 742 mmHg 97%
15:00 +15°C° 1.2 mm 5 mps 742 mmHg 98%
16:00 +15°C° 1.2 mm 5 mps 742 mmHg 98%
17:00 +15°C° 1.2 mm 5 mps 742 mmHg 98%
18:00 +15°C° 0.8 mm 4 mps 742 mmHg 98%
19:00 +15°C° 0.8 mm 4 mps 743 mmHg 98%
20:00 +15°C° 0.8 mm 4 mps 743 mmHg 98%
21:00 +15°C° 0.6 mm 4 mps 743 mmHg 98%
22:00 +16°C° 0.6 mm 3 mps 743 mmHg 98%
23:00 +16°C° 0.6 mm 3 mps 743 mmHg 98%

Day after tomorrow, 16 May, Sunday

Time Temperature Precipitation Wind Pressure Humidity
00:00 +14°C° 0.3 mm 3 mps 743 mmHg 98%
01:00 +14°C° 0.3 mm 3 mps 743 mmHg 98%
02:00 +15°C° 0.3 mm 2 mps 743 mmHg 98%
03:00 +14°C° 0.1 mm 2 mps 743 mmHg 98%
04:00 +14°C° 0.1 mm 2 mps 743 mmHg 98%
05:00 +13°C° 0.1 mm 2 mps 744 mmHg 97%
06:00 +13°C° 0 mm 3 mps 744 mmHg 92%
07:00 +13°C° 0 mm 3 mps 744 mmHg 87%
08:00 +14°C° 0 mm 3 mps 745 mmHg 82%
09:00 +16°C° 0 mm 3 mps 745 mmHg 73%
10:00 +17°C° 0 mm 4 mps 745 mmHg 64%
11:00 +17°C° 0 mm 4 mps 745 mmHg 54%
12:00 +18°C° 0 mm 4 mps 745 mmHg 53%
13:00 +18°C° 0 mm 4 mps 745 mmHg 51%
14:00 +19°C° 0 mm 4 mps 745 mmHg 49%
15:00 +18°C° 0 mm 4 mps 746 mmHg 54%
16:00 +17°C° 0 mm 3 mps 746 mmHg 59%
17:00 +16°C° 0 mm 3 mps 746 mmHg 64%
18:00 +14°C° 0 mm 3 mps 746 mmHg 71%
19:00 +14°C° 0 mm 2 mps 747 mmHg 77%
20:00 +13°C° 0 mm 2 mps 747 mmHg 84%
21:00 +12°C° 0.1 mm 2 mps 747 mmHg 88%
22:00 +12°C° 0.1 mm 1 mps 747 mmHg 91%
23:00 +12°C° 0.1 mm 1 mps 747 mmHg 95%

17 May, Monday

Time Temperature Precipitation Wind Pressure Humidity
00:00 +11°C° 0 mm 1 mps 747 mmHg 96%
01:00 +11°C° 0 mm 1 mps 747 mmHg 97%
02:00 +10°C° 0 mm 1 mps 747 mmHg 98%
03:00 +10°C° 0 mm 1 mps 748 mmHg 97%
04:00 +10°C° 0 mm 1 mps 748 mmHg 97%
05:00 +10°C° 0 mm 1 mps 748 mmHg 96%
06:00 +11°C° 0 mm 1 mps 748 mmHg 85%
07:00 +13°C° 0 mm 1 mps 749 mmHg 75%
08:00 +14°C° 0 mm 1 mps 749 mmHg 64%
09:00 +16°C° 0 mm 2 mps 749 mmHg 57%
10:00 +17°C° 0 mm 2 mps 749 mmHg 50%
11:00 +18°C° 0 mm 2 mps 749 mmHg 43%
12:00 +18°C° 0 mm 2 mps 749 mmHg 44%
13:00 +18°C° 0 mm 2 mps 749 mmHg 44%
14:00 +18°C° 0 mm 3 mps 749 mmHg 45%
15:00 +17°C° 0 mm 2 mps 750 mmHg 50%
16:00 +16°C° 0 mm 2 mps 750 mmHg 55%
17:00 +15°C° 0 mm 2 mps 750 mmHg 60%
18:00 +13°C° 0 mm 2 mps 750 mmHg 72%
19:00 +11°C° 0 mm 1 mps 751 mmHg 84%
20:00 +8°C° 0 mm 0 mps 751 mmHg 96%
21:00 +9°C° 0 mm 1 mps 751 mmHg 97%
22:00 +8°C° 0 mm 1 mps 751 mmHg 97%
23:00 +8°C° 0 mm 1 mps 751 mmHg 98%

18 May, Tuesday

Time Temperature Precipitation Wind Pressure Humidity
00:00 +7°C° 0 mm 1 mps 751 mmHg 97%
01:00 +7°C° 0 mm 1 mps 751 mmHg 97%
02:00 +7°C° 0 mm 1 mps 751 mmHg 96%
03:00 +7°C° 0 mm 1 mps 751 mmHg 94%
04:00 +7°C° 0 mm 1 mps 751 mmHg 92%
05:00 +7°C° 0 mm 1 mps 751 mmHg 89%
06:00 +10°C° 0 mm 1 mps 751 mmHg 73%
07:00 +13°C° 0 mm 1 mps 751 mmHg 57%
08:00 +15°C° 0 mm 0 mps 751 mmHg 41%
09:00 +19°C° 0 mm 1 mps 751 mmHg 38%
10:00 +20°C° 0 mm 1 mps 751 mmHg 35%
11:00 +20°C° 0 mm 2 mps 751 mmHg 32%
12:00 +20°C° 0 mm 2 mps 750 mmHg 35%
13:00 +20°C° 0 mm 2 mps 750 mmHg 37%
14:00 +20°C° 0 mm 2 mps 750 mmHg 40%
15:00 +19°C° 0 mm 2 mps 750 mmHg 44%
16:00 +19°C° 0 mm 1 mps 750 mmHg 49%
17:00 +18°C° 0 mm 1 mps 750 mmHg 53%
18:00 +16°C° 0 mm 1 mps 751 mmHg 59%
19:00 +14°C° 0 mm 1 mps 751 mmHg 65%
20:00 +11°C° 0 mm 0 mps 752 mmHg 71%
21:00 +12°C° 0 mm 1 mps 751 mmHg 72%
22:00 +12°C° 0 mm 1 mps 751 mmHg 72%
23:00 +12°C° 0 mm 1 mps 751 mmHg 72%

19 May, Wednesday

Time Temperature Precipitation Wind Pressure Humidity
00:00 +11°C° 0 mm 1 mps 751 mmHg 75%
01:00 +11°C° 0 mm 1 mps 750 mmHg 77%
02:00 +11°C° 0 mm 1 mps 750 mmHg 79%
03:00 +11°C° 0 mm 1 mps 750 mmHg 76%
04:00 +12°C° 0 mm 1 mps 750 mmHg 74%
05:00 +13°C° 0 mm 1 mps 750 mmHg 72%
06:00 +15°C° 0 mm 2 mps 750 mmHg 68%
07:00 +17°C° 0 mm 2 mps 750 mmHg 65%
08:00 +20°C° 0 mm 2 mps 750 mmHg 62%
09:00 +21°C° 0 mm 2 mps 750 mmHg 58%
10:00 +24°C° 0 mm 2 mps 750 mmHg 54%
11:00 +25°C° 0 mm 2 mps 750 mmHg 50%
12:00 +25°C° 0 mm 3 mps 750 mmHg 50%
13:00 +25°C° 0 mm 3 mps 749 mmHg 50%
14:00 +25°C° 0 mm 3 mps 749 mmHg 51%
15:00 +24°C° 0 mm 3 mps 749 mmHg 56%
16:00 +23°C° 0 mm 2 mps 749 mmHg 62%
17:00 +21°C° 0 mm 2 mps 749 mmHg 68%
18:00 +19°C° 0 mm 2 mps 749 mmHg 78%
19:00 +18°C° 0 mm 1 mps 749 mmHg 88%
20:00 +15°C° 0 mm 1 mps 750 mmHg 98%
21:00 +15°C° 0 mm 1 mps 749 mmHg 98%
22:00 +14°C° 0 mm 1 mps 749 mmHg 98%
23:00 +14°C° 0 mm 1 mps 749 mmHg 98%
Show more